Weather History for KF05 - March, 2013

Change the Weather History Date:

Sunday, March 17, 2013

  Actual Average (KLTS) Record (KLTS)
Temperature  
Mean Temperature 52 °F -  
Max Temperature 89 °F 62 °F 93 °F (2011)
Min Temperature 41 °F 39 °F 26 °F (2005)
Degree Days  
Heating Degree Days 14    
Growing Degree Days 2 (Base 50)    
Moisture  
Dew Point 35 °F    
Average Humidity 55    
Maximum Humidity 69    
Minimum Humidity 40    
Precipitation  
Precipitation 0.00 in - - ()
Sea Level Pressure  
Sea Level Pressure 29.79 in    
Wind  
Wind Speed 14 mph (North)    
Max Wind Speed 23 mph    
Max Gust Speed 32 mph    
Visibility 10 miles    
Events      
Averages and records for this station are not official NWS values.
T = Trace of Precipitation, MM = Missing Value Source: NWS Daily Summary

Daily Weather History Graph

Daily Weather History Graph

Search for Another Location

Airport or City:

Trip Planner

Search our weather history database for the weather conditions in past years. The results will help you decide how hot, cold, wet, or windy it might be!

Date:

Astronomy

Mar. 17, 2013 Rise Set
Actual Time 7:44 AM CDT 7:46 PM CDT
Civil Twilight 7:19 AM CDT 8:11 PM CDT
Nautical Twilight 6:50 AM CDT 8:40 PM CDT
Astronomical Twilight 6:21 AM CDT 9:10 PM CDT
Moon 11:12 AM CDT (3/17) 12:42 AM CDT (3/17)
Length of Visible Light 12h 52m
Length of Day
12h 02m
Waxing Crescent, 31% of the Moon is Illuminated
Mar 17
Waxing Crescent
Mar 19
First Quarter
Mar 27
Full
Apr 2
Last Quarter
Apr 10
New

Hourly Weather History & Observations

Time (CDT) Temp. Windchill Dew Point Humidity Pressure Visibility Wind Dir Wind Speed Gust Speed Precip Events Conditions
12:15 AM 52.7 °F - 37.4 °F 56% 29.79 in 10.0 mi North 19.6 mph 32.2 mph N/A   Clear
12:35 AM 51.6 °F - 37.0 °F 58% 29.81 in 10.0 mi North 20.7 mph 29.9 mph N/A   Clear
12:55 AM 50.9 °F - 36.5 °F 58% 29.81 in 10.0 mi North 16.1 mph 26.5 mph N/A   Clear
1:15 AM 49.6 °F - 36.0 °F 59% 29.81 in 10.0 mi North 21.9 mph 27.6 mph N/A   Clear
1:35 AM 48.9 °F - 35.2 °F 59% 29.81 in 10.0 mi North 23.0 mph 31.1 mph N/A   Clear
1:55 AM 48.4 °F - 34.9 °F 60% 29.82 in 10.0 mi North 21.9 mph 27.6 mph N/A   Clear
2:15 AM 48.2 °F - 34.7 °F 60% 29.82 in 10.0 mi North 19.6 mph 28.8 mph N/A   Clear
2:35 AM 47.8 °F - 34.3 °F 60% 29.82 in 10.0 mi North 23.0 mph 28.8 mph N/A   Clear
2:55 AM 47.5 °F - 34.2 °F 60% 29.82 in 10.0 mi North 23.0 mph 27.6 mph N/A   Clear
3:15 AM 47.3 °F - 34.0 °F 60% 29.83 in 10.0 mi North 16.1 mph - N/A   Clear
3:35 AM 46.8 °F - 33.8 °F 61% 29.84 in 10.0 mi North 16.1 mph 25.3 mph N/A   Clear
3:55 AM 46.2 °F 39.5 °F 33.8 °F 62% 29.83 in 10.0 mi North 16.1 mph 24.2 mph N/A   Clear
4:15 AM 45.9 °F 39.4 °F 33.8 °F 63% 29.84 in 10.0 mi North 15.0 mph 19.6 mph N/A   Clear
4:35 AM 45.3 °F 38.1 °F 33.4 °F 63% 29.84 in 10.0 mi North 17.3 mph 24.2 mph N/A   Clear
4:55 AM 45.0 °F 38.2 °F 33.1 °F 63% 29.83 in 10.0 mi North 15.0 mph 23.0 mph N/A   Clear
5:15 AM 44.6 °F 37.8 °F 32.9 °F 64% 29.84 in 10.0 mi North 15.0 mph 18.4 mph N/A   Clear
5:35 AM 44.6 °F 38.4 °F 32.9 °F 64% 29.84 in 10.0 mi North 12.7 mph - N/A   Clear
5:55 AM 44.4 °F 37.2 °F 32.9 °F 64% 29.84 in 10.0 mi North 16.1 mph 21.9 mph N/A   Clear
6:15 AM 43.9 °F 36.5 °F 32.5 °F 64% 29.85 in 10.0 mi North 16.1 mph 19.6 mph N/A   Clear
6:35 AM 43.7 °F 35.7 °F 32.4 °F 64% 29.85 in 10.0 mi North 18.4 mph - N/A   Scattered Clouds
6:55 AM 43.9 °F 35.9 °F 32.2 °F 63% 29.85 in 10.0 mi North 18.4 mph 26.5 mph N/A   Overcast
7:15 AM 43.9 °F 36.5 °F 32.2 °F 63% 29.85 in 10.0 mi North 16.1 mph 24.2 mph N/A   Overcast
7:35 AM 43.0 °F 36.0 °F 32.0 °F 65% 29.87 in 10.0 mi North 13.8 mph 19.6 mph N/A   Scattered Clouds
7:55 AM 42.1 °F 35.7 °F 32.0 °F 67% 29.86 in 10.0 mi North 11.5 mph 16.1 mph N/A   Clear
8:15 AM 41.4 °F 34.3 °F 32.0 °F 69% 29.87 in 10.0 mi North 12.7 mph 19.6 mph N/A   Clear
8:35 AM 41.7 °F 33.7 °F 32.0 °F 68% 29.87 in 10.0 mi North 16.1 mph - N/A   Clear
8:55 AM 42.4 °F 35.0 °F 32.0 °F 67% 29.88 in 10.0 mi North 15.0 mph - N/A   Clear
9:15 AM 42.3 °F 35.5 °F 32.0 °F 67% 29.88 in 10.0 mi North 12.7 mph 17.3 mph N/A   Clear
9:35 AM 42.4 °F 35.3 °F 32.0 °F 67% 29.87 in 10.0 mi North 13.8 mph - N/A   Clear
9:55 AM 43.7 °F 38.1 °F 32.4 °F 64% 29.88 in 10.0 mi North 10.4 mph - N/A   Clear
10:15 AM 45.1 °F 39.9 °F 32.9 °F 62% 29.89 in 10.0 mi North 10.4 mph 18.4 mph N/A   Clear
10:35 AM 46.2 °F 40.5 °F 33.1 °F 60% 29.90 in 10.0 mi NNW 12.7 mph 17.3 mph N/A   Clear
10:55 AM 46.9 °F - 33.1 °F 59% 29.90 in 10.0 mi North 13.8 mph - N/A   Mostly Cloudy
11:15 AM 47.5 °F - 33.4 °F 58% 29.90 in 10.0 mi NNW 10.4 mph 17.3 mph N/A   Mostly Cloudy
11:35 AM 47.5 °F - 33.4 °F 58% 29.89 in 10.0 mi NNW 9.2 mph - N/A   Mostly Cloudy
11:55 AM 48.4 °F - 34.0 °F 58% 29.89 in 10.0 mi NNW 12.7 mph - N/A   Overcast
12:15 PM 48.7 °F - 33.8 °F 56% 29.89 in 10.0 mi North 10.4 mph - N/A   Overcast
12:35 PM 49.8 °F - 33.8 °F 54% 29.88 in 10.0 mi NNW 12.7 mph - N/A   Overcast
12:55 PM 50.4 °F - 34.3 °F 54% 29.86 in 10.0 mi North 12.7 mph 17.3 mph N/A   Overcast
1:15 PM 51.8 °F - 34.9 °F 53% 29.84 in 10.0 mi NNW 12.7 mph 17.3 mph N/A   Scattered Clouds
1:35 PM 52.7 °F - 35.4 °F 52% 29.83 in 10.0 mi North 11.5 mph - N/A   Clear
1:55 PM 53.1 °F - 35.4 °F 51% 29.81 in 10.0 mi NW 8.1 mph - N/A   Clear
2:15 PM 53.8 °F - 35.6 °F 50% 29.80 in 10.0 mi NNW 8.1 mph - N/A   Clear
2:35 PM 54.7 °F - 36.0 °F 49% 29.79 in 10.0 mi NNW 9.2 mph - N/A   Clear
2:55 PM 55.9 °F - 36.3 °F 48% 29.77 in 10.0 mi NNW 5.8 mph - N/A   Clear
3:15 PM 56.5 °F - 36.1 °F 47% 29.77 in 10.0 mi Calm Calm - N/A   Clear
3:35 PM 57.6 °F - 36.5 °F 45% 29.76 in 10.0 mi North 3.5 mph - N/A   Clear
3:55 PM 58.6 °F - 36.9 °F 44% 29.74 in 10.0 mi West 5.8 mph - N/A   Clear
4:15 PM 59.5 °F - 36.5 °F 42% 29.72 in 10.0 mi SW 3.5 mph - N/A   Clear
4:35 PM 60.3 °F - 36.9 °F 42% 29.71 in 10.0 mi NNW 3.5 mph - N/A   Clear
4:55 PM 60.8 °F - 37.2 °F 42% 29.71 in 10.0 mi Calm Calm - N/A   Clear
5:15 PM 61.5 °F - 37.2 °F 41% 29.69 in 10.0 mi Calm Calm - N/A   Clear
5:35 PM 61.7 °F - 37.8 °F 41% 29.69 in 10.0 mi South 3.5 mph - N/A   Clear
5:55 PM 61.9 °F - 37.4 °F 40% 29.69 in 10.0 mi Calm Calm - N/A   Clear
6:15 PM 62.2 °F - 37.8 °F 40% 29.69 in 10.0 mi SE 3.5 mph - N/A   Clear
6:35 PM 61.9 °F - 38.1 °F 41% 29.69 in 10.0 mi South 8.1 mph - N/A   Clear
6:55 PM 61.9 °F - 38.3 °F 42% 29.69 in 10.0 mi SSE 5.8 mph - N/A   Clear
7:15 PM 61.3 °F - 38.7 °F 43% 29.69 in 10.0 mi SSE 8.1 mph - N/A   Clear
7:35 PM 60.1 °F - 39.0 °F 46% 29.68 in 10.0 mi SE 8.1 mph - N/A   Clear
8:15 PM 57.0 °F - 38.7 °F 50% 29.72 in 10.0 mi East 3.5 mph - N/A   Clear
8:35 PM 56.5 °F - 38.7 °F 51% 29.75 in 10.0 mi Calm Calm - N/A   Scattered Clouds
9:15 PM 56.7 °F - 39.6 °F 53% 29.68 in 10.0 mi SE 11.5 mph - N/A   Scattered Clouds
9:35 PM 57.2 °F - 39.4 °F 51% 29.67 in 10.0 mi ESE 8.1 mph - N/A   Clear
9:55 PM 57.0 °F - 38.8 °F 51% 29.67 in 10.0 mi ESE 5.8 mph - N/A   Clear
10:15 PM 56.1 °F - 38.5 °F 52% 29.66 in 10.0 mi SE 5.8 mph - N/A   Clear
10:35 PM 55.6 °F - 38.1 °F 52% 29.66 in 10.0 mi SE 3.5 mph - N/A   Clear
10:55 PM 55.4 °F - 37.9 °F 52% 29.66 in 10.0 mi SSE 5.8 mph - N/A   Clear
11:15 PM 54.1 °F - 37.8 °F 54% 29.66 in 10.0 mi SSE 6.9 mph - N/A   Clear
11:35 PM 52.2 °F - 37.8 °F 58% 29.66 in 10.0 mi SSE 6.9 mph - N/A   Clear
11:55 PM 52.5 °F - 37.9 °F 58% 29.65 in 10.0 mi SSE 6.9 mph - N/A   Clear